SCP
0 0 0 0 0 0 0 0 0 0 0 0 0 0 0 0 0 0 0 0 0 0 0 0 0 0 0 0 0 0 0 0 0 0 0 0 0 0 0 0 0 0 0
0 0 0 0 0 0 0 0 0 0 0 0 0 0 0 0 0 0 0 0 0 0 0 0 0 0 0 0 0 0 0 0 0 0 0 0 0 0 0 0 0 0 0
0 0 0 0 0 0 0 0 0 0 0 0 0 0 0 0 0 0 0 0 0 0 0 0 0 0 0 -0 0 0 0 0 0 0 0 0 0 0 0 0 0 0 0
0 0 0 0 0 0 0 0 0 0 0 0 0 0 0 0 0 0 0 0 0 0 0 0 0 0 0 0 0 0 0 0 0 0 0 0 0 0 0 0 0 0 0
0 0 0 0 0 0 0 0 0 0 0 0 0 0 0 0 0 0 0 0 0 0 0 0 0 0 0 0 0 0 0 0 0 0 0 0 0 0 0 0 0 0 0
0 0 0 0 0 0 0 0 0 0 0 0 0 0 0 0 0 0 0 0 0 0 0 0 0 0 0 0 0 0 0 0 0 0 0 0 0 0 0 0 0 0 0
0 0 0 0 0 0 0 0 0 0 0 0 0 0 0 0 0 0 0 0 0 0 0 0 0 0 0 0 0 0 0 0 0 0 0 0 0 0 0 0 0 0 0
0 0 0 0 0 0 0 0 0 0 0 0 0 0 0 0 0 0 0 0 0 0 0 0 0 0 0 0 0 0 0 0 0 0 0 0 0 0 0 0 0 0 0
0 0 0 0 0 0 0 0 0 0 0 0 0 0 0 0 0 0 0 0 0 0 0 0 0 0 0 0 0 0 0 0 0 0 0 0 0 0 0 0 0 0 0
0 0 0 0 0 0 0 0 0 0 0 0 0 0 0 0 0 0 0 0 0 0 0 0 0 0 0 0 0 0 0 0 -0 -0 -0 0 0 0 0 0 0 0 0
0 0 0 0 0 0 0 0 0 0 0 0 0 0 0 0 0 0 0 0 0 0 0 0 0 0 0 0 0 0 0 -0 -0 -0 -0 -0 -0 -0 0 0 0 0 0
0 0 0 0 0 0 0 0 0 0 0 0 0 0 0 0 0 0 0 0 0 0 0 0 0 0 0 0 0 0 0 -0 -0 -0 -0 -0 -0 -0 0 0 0 0 0
0 -0 0 0 0 0 0 0 0 0 0 0 0 0 0 0 0 0 0 0 0 0 0 0 0 0 0 0 0 0 0 0 -0 -0 0 0 0 0 0 0 0 0 0
0 0 0 0 0 0 0 0 0 0 0 0 0 0 0 0 0 0 0 0 0 0 0 0 0 0 0 0 0 0 0 0 0 0 0 0 0 0 0 0 0 0 0
0 0 0 0 0 0 0 0 0 0 0 0 0 0 0 0 0 0 0 0 0 0 0 0 0 0 0 0 0 0 0 0 0 0 0 0 0 0 0 0 0 0 0
0 0 0 0 0 0 0 0 0 0 0 0 0 0 0 0 0 0 0 0 0 0 0 0 0 0 0 0 0 0 0 0 0 0 0 0 0 0 0 0 0 0 0
0 0 0 0 0 0 0 0 0 0 0 0 0 0 0 0 0 0 0 0 0 0 0 0 0 0 0 -0 0 0 0 0 0 0 0 0 0 0 0 0 0 0 0
0 0 0 0 0 0 0 0 0 0 0 0 0 0 0 0 0 0 0 0 0 0 0 0 0 0 0 0 0 0 0 0 0 0 0 0 0 0 0 0 0 0 0
0 0 0 0 0 0 0 0 0 -0 0 0 0 -0 -0 -0 -0 0 0 0 0 0 0 0 0 0 0 0 0 0 0 0 0 0 0 0 0 0 0 0 0 0 0
0 0 0 0 0 0 0 0 0 0 0 0 0 -0 -0 -0 -0 0 0 0 0 0 0 -0 -0 0 0 0 0 0 0 0 0 0 0 0 0 0 0 0 0 0 0
0 0 0 0 0 0 0 0 0 0 0 0 0 -0 -0 -0 0 0 0 0 0 0 -0 -0 -0 -0 0 0 0 0 0 0 0 0 0 0 0 0 0 0 0 0 0
0 0 0 0 0 0 0 0 0 0 0 0 0 0 -0 0 0 0 0 0 0 0 -0 -0 -0 -0 0 0 0 0 0 0 0 0 0 0 0 0 0 0 0 0 0
0 0 0 0 0 0 0 0 0 0 0 0 0 0 -0 0 0 0 0 0 0 0 -0 -0 0 0 0 0 0 0 0 0 0 0 0 0 0 0 0 0 0 0 0
0 0 0 0 0 0 0 0 0 0 0 0 0 0 0 0 0 -0 -0 0 0 0 0 0 0 0 0 0 0 0 0 0 0 0 0 0 0 0 0 0 0 0 0
0 0 0 0 0 0 0 0 0 0 0 0 0 0 0 0 -0 -0 -0 0 0 0 0 0 0 0 0 0 0 0 0 0 0 0 0 0 0 0 0 0 -0 -0 -0
0 0 0 0 0 0 0 0 0 0 0 0 0 0 0 -0 -0 -0 0 0 0 0 0 0 0 0 0 0 0 0 0 0 0 0 0 0 0 -0 -0 -0 -0 -0 -0
Wind_Speed
1 1 1 0 1 1 1 1 2 2 3 3 3 3 3 3 3 2 2 3 2 3 2 2 3 2 1 1 1 2 2 2 3 3 2 2 2 2 2 2 2 2 2
1 1 0 0 1 1 1 2 2 2 3 3 3 3 3 3 3 2 3 3 3 3 3 3 3 2 2 2 1 2 2 2 2 3 2 1 2 2 2 2 2 2 2
1 1 0 0 0 1 2 2 2 2 2 2 2 2 3 3 3 3 2 3 3 3 3 3 3 3 3 2 2 2 2 2 2 2 2 1 1 1 2 2 2 1 2
1 1 1 2 2 2 2 2 2 2 2 2 2 2 2 3 3 3 3 3 3 3 3 3 3 3 3 3 2 3 2 2 1 2 2 2 2 1 1 1 2 1 2
1 1 2 2 2 2 2 2 2 1 2 2 2 3 3 2 2 3 3 3 3 4 4 4 4 5 4 3 2 2 2 2 2 2 2 2 2 2 2 1 2 2 3
2 2 2 1 2 2 2 2 1 1 2 2 2 2 3 2 4 4 3 3 3 3 5 5 5 5 5 5 4 4 4 4 3 3 3 3 4 3 2 2 1 1 2
2 2 2 2 2 2 2 1 1 1 1 2 2 2 3 4 5 5 4 2 3 3 4 4 4 5 5 4 5 5 3 4 5 4 5 5 4 4 3 3 2 2 3
1 2 2 2 2 1 1 1 1 1 1 2 2 3 3 4 5 5 5 2 3 3 3 3 4 5 5 4 3 4 4 4 3 4 5 5 5 4 4 4 3 3 3
2 2 2 2 1 1 2 2 1 1 1 2 2 2 3 5 5 5 4 2 3 4 4 4 4 4 5 4 3 4 5 5 4 4 5 6 7 7 5 3 3 3 3
3 3 3 2 2 2 2 2 1 1 2 2 3 3 3 4 6 6 4 1 3 4 4 4 4 5 5 4 3 3 5 6 5 5 4 4 4 5 7 6 5 4 3
2 2 2 2 2 2 1 1 1 1 1 2 3 4 3 4 5 6 4 2 3 4 4 4 4 6 6 6 4 4 6 6 5 5 4 4 3 3 3 4 5 5 4
1 1 1 1 1 1 0 1 0 0 1 2 3 4 3 4 4 5 5 4 4 3 5 5 5 8 8 8 6 6 8 6 4 4 4 4 3 3 3 3 5 6 6
1 1 1 0 0 1 1 1 1 0 1 2 2 3 4 4 4 6 6 6 5 3 4 7 9 10 9 6 7 7 5 3 3 3 4 4 4 4 3 3 3 4 6
2 1 0 0 0 1 0 1 1 2 2 2 3 4 4 4 4 4 3 4 4 3 4 6 7 7 6 6 6 4 3 3 3 4 4 4 3 3 3 3 3 2 2
2 1 1 1 1 1 1 2 3 4 4 4 4 4 4 5 6 5 4 4 4 4 5 4 3 4 4 4 4 4 3 2 3 3 3 4 4 3 3 2 2 2 2
2 2 1 1 1 1 1 3 4 4 5 6 8 7 5 8 9 9 8 7 6 5 2 3 4 4 5 5 5 5 4 3 3 3 3 3 4 4 4 2 2 3 4
3 3 1 1 1 1 1 2 4 6 6 5 5 5 6 7 7 7 7 6 5 2 1 3 4 5 5 5 4 4 4 4 4 3 4 4 4 4 4 3 3 3 4
3 3 3 2 2 2 2 2 2 3 5 5 5 5 6 6 6 6 5 3 3 1 2 3 4 5 5 5 5 4 5 5 4 3 3 3 3 3 4 4 3 4 4
3 2 2 2 2 2 2 2 2 3 3 4 4 5 5 5 4 4 2 1 3 3 3 3 4 4 4 4 4 4 5 4 5 4 4 4 4 4 4 4 4 4 4
2 3 3 2 2 2 2 2 2 2 3 3 4 4 3 3 3 3 2 2 2 3 4 4 4 4 4 4 4 4 4 4 4 4 4 4 4 4 5 6 5 4 4
2 2 2 1 2 2 2 2 2 3 3 3 3 3 2 2 2 3 2 2 2 3 3 3 3 4 3 3 4 4 5 5 4 5 5 5 5 5 5 5 5 5 5
2 2 1 2 2 2 2 2 2 2 3 3 3 3 2 1 2 2 2 3 2 2 2 2 2 2 3 3 3 4 4 5 5 5 6 5 5 5 5 5 5 5 5
2 2 1 1 1 2 2 2 2 2 3 3 2 2 2 2 2 2 2 2 2 2 2 2 2 2 3 3 3 3 4 5 6 6 6 6 6 6 5 6 7 6 6
3 2 2 2 1 1 2 2 2 2 2 2 2 2 2 2 2 2 2 2 2 2 2 2 3 4 5 4 3 3 4 5 6 5 7 7 7 6 6 6 6 7 6
2 2 2 2 2 2 2 2 2 3 2 2 2 2 2 2 2 2 2 2 3 3 3 3 3 4 6 7 6 6 6 7 6 6 6 5 6 6 6 6 6 7 7
2 2 2 2 2 2 2 2 3 3 2 2 1 1 2 2 2 2 2 2 3 3 3 3 5 5 7 6 7 7 7 7 7 7 5 4 5 5 6 5 7 6 7
Wind_Direction
109 100 81 33 40 47 27 333 331 330 331 331 332 336 339 344 350 359 351 353 354 339 339 337 325 319 297 286 261 241 234 233 252 268 256 268 262 267 289 273 248 240 225
154 140 174 121 59 33 346 325 332 328 326 327 335 346 347 349 347 352 348 353 346 335 331 330 325 331 323 307 281 265 254 241 238 271 282 277 268 262 267 264 256 240 235
148 146 207 306 312 311 304 312 324 322 325 336 348 350 347 342 342 345 344 340 333 323 320 313 312 323 315 303 289 276 267 261 238 245 279 290 275 267 280 278 259 261 246
158 168 232 250 256 266 279 299 310 312 323 334 339 340 337 335 341 341 340 334 330 326 320 311 307 299 287 284 283 278 273 276 256 237 261 276 267 270 251 261 280 276 263
166 213 245 251 255 265 277 290 302 312 318 328 348 351 348 343 340 333 327 326 323 325 326 322 313 306 295 287 280 275 265 265 265 252 257 263 258 250 243 232 259 282 266
207 242 254 252 256 262 271 275 294 319 329 346 350 344 340 333 329 330 328 319 317 319 321 323 320 318 319 317 308 284 249 242 250 249 252 252 258 251 244 232 235 264 267
231 256 269 255 254 259 265 289 296 314 333 330 324 331 325 316 322 327 329 320 311 310 310 318 328 333 333 328 329 332 312 267 241 236 247 251 252 236 217 233 229 233 251
231 261 275 266 261 281 288 280 290 298 316 308 308 314 315 313 320 322 331 331 315 307 303 303 310 318 329 328 328 335 325 310 280 247 243 255 256 247 228 227 234 251 267
230 246 256 250 248 290 294 273 268 289 306 298 294 303 307 307 314 317 328 321 314 311 311 311 304 303 316 328 332 324 322 315 306 277 256 257 258 252 235 216 213 220 258
234 243 249 239 223 237 264 258 253 246 269 292 303 298 289 293 304 312 315 296 304 307 312 310 300 298 305 318 310 303 303 303 314 316 305 289 272 258 233 221 218 219 233
238 247 247 234 222 223 250 247 253 279 300 307 307 306 299 292 298 302 306 271 276 294 302 307 308 311 306 301 287 270 268 282 299 299 300 301 296 278 248 224 221 220 226
210 241 254 241 228 199 166 288 275 279 311 314 316 315 310 302 294 298 303 288 267 272 286 295 298 305 303 298 289 276 275 281 284 288 287 286 283 278 268 248 234 233 235
175 220 238 287 113 121 150 238 300 289 286 301 304 303 307 308 301 295 296 299 294 270 278 287 296 302 302 297 289 289 284 264 262 273 278 276 268 266 273 271 254 241 247
181 200 164 147 314 332 252 218 242 264 272 280 285 291 298 302 305 312 315 315 313 298 295 300 300 296 291 283 292 296 277 256 249 261 274 276 274 270 266 263 265 265 270
185 198 198 212 231 293 302 264 249 251 235 241 264 265 276 290 290 297 302 303 305 309 318 316 326 328 329 326 321 312 301 281 262 260 266 278 284 285 280 263 255 256 251
191 207 204 209 238 268 308 320 296 264 271 257 245 248 260 260 279 293 296 294 296 303 316 310 315 316 312 314 319 319 312 303 291 278 275 278 283 284 285 275 251 250 256
194 206 205 214 236 263 274 290 312 322 320 303 288 281 265 278 287 291 298 305 307 300 294 301 305 310 312 310 308 308 308 310 306 296 286 283 282 284 284 284 277 268 270
199 205 206 220 234 252 263 270 275 295 312 317 316 311 308 302 303 311 319 335 337 358 298 302 307 311 314 317 318 317 315 320 323 319 316 311 302 292 287 283 280 278 278
195 209 212 225 239 254 268 279 285 284 289 301 314 320 324 322 326 337 0 358 321 323 320 313 310 313 317 320 321 324 325 328 331 332 330 325 320 310 300 297 292 286 280
201 216 217 227 251 271 279 287 296 297 301 306 309 311 330 353 352 346 349 321 312 314 319 320 322 328 328 327 326 327 327 329 332 332 329 325 322 314 307 305 303 300 293
201 217 226 239 255 266 276 285 289 293 296 300 298 299 301 299 303 314 320 320 319 316 319 326 332 335 337 334 332 332 331 328 328 324 321 320 320 317 312 305 302 301 302
188 205 225 251 266 272 282 285 288 287 291 294 299 313 310 293 303 312 315 320 324 323 324 326 332 337 336 334 336 335 332 330 329 325 318 315 315 314 312 310 310 311 310
189 205 229 248 255 278 294 294 289 289 295 295 298 307 317 315 315 316 318 325 336 339 340 339 333 335 335 333 330 330 326 323 321 318 316 316 318 316 314 312 312 313 310
187 201 218 242 254 257 274 287 293 298 297 295 300 306 310 314 318 319 321 330 341 342 343 341 336 339 341 342 336 333 330 327 323 318 317 314 315 317 319 319 318 318 314
184 198 217 234 241 252 272 289 296 297 298 300 305 315 321 322 319 320 328 335 338 339 344 347 345 346 350 349 346 344 340 334 331 327 319 314 315 319 323 325 325 323 321
189 203 218 225 233 246 262 276 284 287 292 302 316 319 320 322 326 332 335 335 334 337 345 351 354 358 357 353 350 347 343 339 335 329 322 319 324 330 332 325 324 324 324